Wink, TX

8:41 AM CST on December 04, 2016 (GMT -0600)
Winkler County

Weather History for KINK - January, 2013

Change the Weather History Date:

Saturday, January 12, 2013

  Actual Average Record
Temperature  
Mean Temperature 42 °F -  
Max Temperature 51 °F 58 °F 80 °F (1957)
Min Temperature 33 °F 26 °F 0 °F (1962)
Degree Days  
Heating Degree Days 23    
Moisture  
Dew Point 20 °F    
Average Humidity 45    
Maximum Humidity 76    
Minimum Humidity 23    
Precipitation  
Precipitation 0.00 in - - ()
Sea Level Pressure  
Sea Level Pressure 29.86 in    
Wind  
Wind Speed 7 mph (NNW)    
Max Wind Speed 15 mph    
Max Gust Speed 23 mph    
Visibility 10 miles    
Events      
Averages and records for this station are not official NWS values.
T = Trace of Precipitation, MM = Missing Value Source: NWS Daily Summary

Daily Weather History Graph

Daily Weather History Graph

Search for Another Location

Airport or City:

Trip Planner

Search our weather history database for the weather conditions in past years. The results will help you decide how hot, cold, wet, or windy it might be!

Date:

Astronomy

Jan. 12, 2013 Rise Set
Actual Time 7:53 AM CST 6:09 PM CST
Civil Twilight 7:27 AM CST 6:35 PM CST
Nautical Twilight 6:57 AM CST 7:05 PM CST
Astronomical Twilight 6:27 AM CST 7:35 PM CST
Moon 8:20 AM CST (1/12) 7:33 PM CST (1/12)
Length of Visible Light 11h 08m
Length of Day
10h 15m
New Moon, 1% of the Moon is Illuminated
Jan 12
New Moon
Jan 18
First Quarter
Jan 26
Full
Feb 3
Last Quarter
Feb 10
New

Hourly Weather History & Observations

Time (CST) Temp. Windchill Dew Point Humidity Pressure Visibility Wind Dir Wind Speed Gust Speed Precip Events Conditions
12:53 AM 41.0 °F - 34.0 °F 76% 29.79 in 10.0 mi Calm Calm - N/A   Clear
1:53 AM 42.8 °F 40.1 °F 35.6 °F 76% 29.85 in 10.0 mi North 4.6 mph - N/A   Clear
2:53 AM 43.0 °F 37.7 °F 23.0 °F 45% 29.79 in 10.0 mi North 9.2 mph - N/A   Clear
3:53 AM 41.0 °F 35.2 °F 21.9 °F 47% 29.79 in 10.0 mi North 9.2 mph - N/A   Clear
4:53 AM 39.9 °F 33.4 °F 19.0 °F 43% 29.79 in 10.0 mi North 10.4 mph - N/A   Clear
5:53 AM 37.9 °F 31.5 °F 19.0 °F 47% 29.80 in 10.0 mi North 9.2 mph - N/A   Clear
6:53 AM 36.0 °F 30.3 °F 21.0 °F 55% 29.83 in 10.0 mi NNW 6.9 mph - N/A   Clear
7:53 AM 33.1 °F 26.9 °F 21.0 °F 61% 29.86 in 10.0 mi NW 6.9 mph - N/A   Clear
8:53 AM 34.0 °F 28.0 °F 19.9 °F 56% 29.88 in 10.0 mi WNW 6.9 mph - N/A   Clear
9:53 AM 39.9 °F 31.8 °F 14.0 °F 35% 29.91 in 10.0 mi NNW 15.0 mph 23.0 mph N/A   Clear
10:53 AM 44.1 °F 37.7 °F 12.9 °F 28% 29.91 in 10.0 mi NNW 12.7 mph - N/A   Clear
11:53 AM 46.0 °F 41.0 °F 14.0 °F 28% 29.90 in 10.0 mi NNW 10.4 mph - N/A   Partly Cloudy
12:53 PM 46.9 °F - 17.1 °F 30% 29.88 in 10.0 mi NW 15.0 mph - N/A   Clear
1:53 PM 48.9 °F - 12.9 °F 24% 29.83 in 10.0 mi NNW 12.7 mph - N/A   Clear
2:53 PM 48.9 °F - 12.0 °F 23% 29.81 in 10.0 mi North 4.6 mph - N/A   Clear
3:53 PM 51.1 °F - 17.1 °F 26% 29.82 in 10.0 mi WNW 10.4 mph - N/A   Clear
4:53 PM 48.9 °F - 18.0 °F 29% 29.83 in 10.0 mi West 10.4 mph - N/A   Clear
5:53 PM 46.9 °F - 19.0 °F 33% 29.83 in 10.0 mi NW 4.6 mph - N/A   Clear
6:53 PM 42.8 °F - 23.0 °F 46% 29.86 in 10.0 mi Calm Calm - N/A   Clear
7:53 PM 39.0 °F 34.8 °F 23.0 °F 53% 29.88 in 10.0 mi WNW 5.8 mph - N/A   Clear
8:53 PM 37.9 °F 31.5 °F 21.9 °F 53% 29.91 in 10.0 mi West 9.2 mph - N/A   Clear
9:53 PM 34.0 °F 28.8 °F 24.1 °F 67% 29.95 in 10.0 mi North 5.8 mph - N/A   Clear
10:53 PM 35.1 °F 28.6 °F 19.0 °F 52% 29.97 in 10.0 mi NW 8.1 mph - N/A   Clear
11:53 PM 35.1 °F 27.9 °F 16.0 °F 46% 29.99 in 10.0 mi WNW 9.2 mph - N/A   Clear